Regional Weather Roundup
Issued by NWS

Home | Current Version | Previous Version | Graphics & Text | Print | Product List | Glossary On
Versions: 1 2 3 4 5 6 7 8 9 10 11 12 13 14 15 16 17 18 19 20 21 22 23 24 25 26 27 28 29 30 31 32 33 34 35 36 37 38 39 40 41 42 43 44 45 46 47 48 49 50
368
ASUS44 KJAN 241110
RWRMS

MISSISSIPPI HOURLY WEATHER ROUNDUP
NATIONAL WEATHER SERVICE JACKSON MS
600 AM CDT THU JUL 24 2014

NOTE: "FAIR: INDICATES FEW OR NO CLOUDS BELOW 12,000 FEET WITH NO
SIGNIFICANT WEATHER AND/OR OBSTRUCTIONS TO VISIBILITY.

MSZ001>002-007>008-010>013-018>021-025>028-034>036-241200-
NORTHWEST MISSISSIPPI

CITY           SKY/WX    TMP DP  RH WIND       PRES   REMARKS
CLARKSDALE     FAIR      68  68 100 CALM      30.02R
CLEVELAND      FAIR      68  68 100 N3        30.00R FOG
GREENWOOD      CLEAR     69  68  96 CALM      29.99R
GREENVILLE     CLEAR     70  69  97 CALM      29.99R
GRENADA        PTSUNNY   68  68 100 CALM      30.00R
OLIVE BRANCH   CLEAR     66 N/A N/A N6        30.02R
OXFORD         FAIR      66  66 100 CALM      30.02R
TUNICA         SUNNY     68  66  94 CALM      30.02R
$$

MSZ003>006-009-014>017-022>024-029>033-037>039-241200-
NORTHEAST MISSISSIPPI

CITY           SKY/WX    TMP DP  RH WIND       PRES   REMARKS
BELMONT        FOG       68  68  99 CALM      29.99R VSB 1/2
COLUMBUS AFB   FOG       72  72 100 W2        29.99R VSB 1/2
CORINTH        FAIR      66  66 100 CALM      29.99S FOG
GOLDN TRIANGLE FOG       72  68  88 S5        29.99R VSB 1/4
STARKVILLE     FOG       68  68 100 CALM      29.99R VSB 1/2
TUPELO         CLEAR     70  67  90 N5        29.99R
$$

MSZ040-058-241200-
CENTRAL MISSISSIPPI

CITY           SKY/WX    TMP DP  RH WIND       PRES   REMARKS
JACKSON INTL   PTCLDY    71  70  96 SE5       29.99R
JACKSON HAWKNS CLEAR     72  68  87 CALM      30.00R
MERIDIAN KEY   CLEAR     70  68  93 CALM      29.99R
MERIDIAN NAS   CLEAR     69  68  96 CALM      30.00R
RAYMOND        FAIR      70  64  83 CALM      30.00R
VICKSBURG      MOCLDY    72  70  93 W3        30.00R FOG
$$

MSZ059>079-241200-
SOUTH MISSISSIPPI

CITY           SKY/WX    TMP DP  RH WIND       PRES   REMARKS
BROOKHAVEN     FAIR      70  70 100 CALM      30.02R FOG
COLUMBIA       FOG       68  68 100 N5        29.99R VSB 1/2
HATTIESBURG    CLEAR     72  70  93 SE3       30.00R
MCCOMB         CLEAR     72  69  90 N5        30.00R
NATCHEZ        CLEAR     70  68  94 CALM      29.99S
PINE BELT      PTCLDY    72  68  88 CALM      30.02R
$$

MSZ080>082-241200-
COASTAL MISSISSIPPI

CITY           SKY/WX    TMP DP  RH WIND       PRES   REMARKS
BILOXI         CLEAR     74  73  96 NE5       29.98R
PASCAGOULA     LGT RAIN  71  70  96 CALM      29.99R
GULFPORT       CLEAR     76  71  85 CALM      29.97R
$$



USA.gov is the U.S. government's official web portal to all federal, state and local government web resources and services.